BREEZE-M DEB, 34263

Orbit data source: Space-Track

BREEZE-M DEB, 34263 is space debris originally from a launch on Tue, 28 Feb 2006 UTC launched from the Tyuratam Missile And Space Complex (TTMTR). Debris objects in space refer to the collection of defunct objects orbiting the Earth. Examples of debris include non-operational satellites, rocket bodies, and fragments generated from explosions, collisions, or faulty payload assembly.

Loading next visibility...
Identifier
34263, 2006-006CE
Orbit
Active
Country
Flag of CISCIS
Related business
Manufacturer
Khrunichev
Mission
Spacecraft
Bus & Motor
Unknown
Mass
Unknown
Launch date (UTC)
2006-02-28 (20 years ago)
Launch vehicle
Unknown
Launch site
Tyuratam Missile And Space Complex (TTMTR)
Object type
Payload
Rocket body
Debris
Shape & HBR
Unknown shape, 0.1 m
Radar Cross Section
Medium (>0.1 m² and <1 m²)

Expand to show TLE details & history
Last TLE update: 2 weeks ago

TLE from 2 weeks ago
0 BREEZE-M DEB
1 34263U 06006CE  26152.28975698  .00006890  00000-0  42680-2 0  9995
2 34263  51.5521 136.4015 4300942 229.2580  84.6901  6.64255365252244
Epoch: 2026-06-01T06:57Z
TLE epoch observation values (Epoch: 2026-06-01T06:57:15.003Z)
Latitude
-0.00001°
Longitude
142.30977°
Altitude
7,173.589 km
Speed
5.049 km/s
True Right ascension
09h 05m 36s
True Declination
0° 00' 00"
Sunlit
Object was in daylight at epoch
Visualization orbit readout
Latitude
Unknown
Longitude
Unknown
Altitude
Unknown
Speed
Unknown
Apparent Right ascension
Unknown
Apparent Declination
Unknown
Sunlit
N/A
Visualization observer readout
Local Sidereal Time
12:49:42
Azimuth
Unknown
Elevation
Unknown
Doppler factor
Unknown
Orbital elements
Apogee altitude
10,717.735 km
Perigee altitude
434.726 km
Semi-major axis
11,954.368 km
Eccentricity
0.43009
Inclination
51.5521°
RAAN
136.4015°
Arg. of periapsis
229.258°
True anomaly
130.81198°
Mean anomaly
84.6901°
Eccentric anomaly
108.1117°
Mean motion
1.66055 °/min
Orbital period
216.79 mins
BSTAR
0.004268
Loading maneuver chart data...
Computing Atmospheric mass density...
Loading historical data...
Loading historical data...
Loading historical data...
Loading historical data...
Loading historical data...
Loading historical data...
Loading historical data...

Documentation

Showing up to 5 results
|